DW8626 Madrid ES current weather conditions

sailwx.info

Wind from 222 at 2 knots gusting 7

Air temperature 20.0° C
Dewpoint 12.5° C

Last reported at 2017-Oct-20 16:59 UTC.
Time now 2017-Oct-20 18:15 UTC

Location: N 40°29' W 003°43'.
View on Google Maps.

See reports from other nearby stations

  
Tides and Currents Weather Stations Pressure Air Temp Water Temp Dewpoint Dewpoint Depression Visibility Wind Speed Wind Dir Waves Ship Positions
date/time (UTC)wind fromknots sea level pressurealtimeterstation pressurevisibilityair tempwater tempwave heightnotes
2017-Oct-20 16:59 222 2 gusting 7 20.0
2017-Oct-20 16:29 179 1 gusting 9 20.0
2017-Oct-20 15:58 200 1 gusting 8 20.0
2017-Oct-20 15:29 214 4 gusting 13 20.0
2017-Oct-20 14:58 172 5 gusting 11 20.0
2017-Oct-20 14:29 208 2 gusting 9 20.0
2017-Oct-20 13:59 155 5 gusting 10 19.4
2017-Oct-20 13:29 170 6 gusting 11 18.9
2017-Oct-20 12:59 168 6 gusting 12 18.9
2017-Oct-20 12:29 200 4 gusting 10 18.3
2017-Oct-20 11:59 151 1 gusting 7 17.2
2017-Oct-20 11:29 169 2 gusting 6 17.2
2017-Oct-20 10:59 148 2 gusting 7 16.7
2017-Oct-20 10:29 217 16.7
2017-Oct-20 09:58 136 16.1
2017-Oct-20 09:29 239 16.1
2017-Oct-20 08:59 188 15.0
2017-Oct-20 08:29 269 13.3
2017-Oct-20 07:59 190 13.3
2017-Oct-20 07:29 285 12.2
2017-Oct-20 06:59
2017-Oct-20 05:59
2017-Oct-20 05:29
2017-Oct-20 04:59
2017-Oct-20 04:30 187 11.7
2017-Oct-20 03:58 255 11.7
2017-Oct-20 03:29 210 12.2
2017-Oct-20 02:59 265 12.8
2017-Oct-20 02:29 215 12.8
2017-Oct-20 01:59 172 12.8
2017-Oct-20 01:29 256 13.3
2017-Oct-20 00:59 299 13.3
2017-Oct-20 00:29 265 13.9
2017-Oct-19 23:59 288 14.4
2017-Oct-19 23:29 288 13.9
2017-Oct-19 22:59 285 13.3
2017-Oct-19 22:29 304 13.3
2017-Oct-19 21:59 205 12.8
2017-Oct-19 21:29 286 13.3
2017-Oct-19 20:59 294 2 gusting 6 13.9
2017-Oct-19 20:29 257 1 gusting 8 14.4
2017-Oct-19 19:59 273 15.0
2017-Oct-19 19:29 274 14.4
2017-Oct-19 18:59 291 14.4
2017-Oct-19 18:29 299 14.4
2017-Oct-19 17:59 295 15.0
2017-Oct-19 17:29 291 15.6
2017-Oct-19 16:59 294 16.1
2017-Oct-19 16:29 297 3 gusting 14 16.7
2017-Oct-19 15:59 305 17.2
2017-Oct-19 15:29 358 6 gusting 15 17.2
2017-Oct-19 14:59 301 5 gusting 9 17.2
2017-Oct-19 14:29 274 6 gusting 13 17.2
2017-Oct-19 13:59 274 4 gusting 10 16.7
2017-Oct-19 13:29 243 0 gusting 12 16.7
2017-Oct-19 12:59 252 3 gusting 9 15.6
2017-Oct-19 12:29 295 16.7
2017-Oct-19 11:59 169 15.6
2017-Oct-19 11:29 240 15.0
2017-Oct-19 10:59 134 14.4
2017-Oct-19 10:29 132 12.8
2017-Oct-19 09:59 166 12.8
2017-Oct-19 09:29 229 11.7
2017-Oct-19 08:59 238 10.6
2017-Oct-19 08:29 201 11.1
2017-Oct-19 07:59 162 8.9
2017-Oct-19 07:29 357 8.9
2017-Oct-19 06:59 357 8.3
2017-Oct-19 06:29 356 8.3
2017-Oct-19 05:59 357 8.3
2017-Oct-19 05:29
2017-Oct-19 04:59
2017-Oct-19 04:29
2017-Oct-19 03:29
2017-Oct-19 02:59 028 8.9
2017-Oct-19 02:29 038 8.3
2017-Oct-19 01:59 039 8.9
2017-Oct-19 01:29 039 8.9
2017-Oct-19 00:59 039 10.0
2017-Oct-19 00:29 039 10.0
2017-Oct-18 23:59 039 10.0
2017-Oct-18 23:29 039 10.0
2017-Oct-18 22:59 016 10.0
2017-Oct-18 22:29 015 10.0
2017-Oct-18 21:59 015 10.0
2017-Oct-18 21:29 233 10.6
2017-Oct-18 20:59 260 10.6
2017-Oct-18 20:29 250 10.6
2017-Oct-18 19:59 252 10.6
2017-Oct-18 19:29 203 10.6
2017-Oct-18 18:59 243 10.6
2017-Oct-18 18:29 220 10.6